When you browse on this site, cookies collect data to enhance your experience and personalize the content and advertising you see.
Visit our Privacy Policy to learn more. By continuing to use the site, you agree to this use of cookies and data.
  • Em Portugal
  • Lista de países
  • Para 7 dias
  • Temperatura da água
  • Mapa do tempo
  • Widgets de tempo
  • user-avatar
    Iniciar Sessão

    Previsão horária em Kotonu

    Hoje, 17 Novembro, Domingo

    Tempo Temperatura Precipitação Vento Pressão Humidade
    00:00 +29°C° 0 mm 3 m/s 757 mmHg 83%
    01:00 +29°C° 0.1 mm 3 m/s 756 mmHg 84%
    02:00 +28°C° 0.1 mm 3 m/s 755 mmHg 86%
    03:00 +28°C° 0.1 mm 3 m/s 755 mmHg 88%
    04:00 +28°C° 0 mm 3 m/s 755 mmHg 89%
    05:00 +28°C° 0 mm 2 m/s 756 mmHg 90%
    06:00 +28°C° 0 mm 2 m/s 756 mmHg 89%
    07:00 +30°C° 0 mm 2 m/s 757 mmHg 81%
    08:00 +31°C° 0 mm 2 m/s 757 mmHg 72%
    09:00 +33°C° 0 mm 1 m/s 757 mmHg 64%
    10:00 +35°C° 0 mm 2 m/s 757 mmHg 58%
    11:00 +36°C° 0 mm 2 m/s 756 mmHg 53%
    12:00 +37°C° 0 mm 3 m/s 756 mmHg 53%
    13:00 +36°C° 0 mm 3 m/s 755 mmHg 56%
    14:00 +36°C° 0 mm 3 m/s 754 mmHg 59%
    15:00 +35°C° 0 mm 4 m/s 754 mmHg 62%
    16:00 +34°C° 0.2 mm 4 m/s 754 mmHg 68%
    17:00 +32°C° 0.2 mm 4 m/s 755 mmHg 74%
    18:00 +30°C° 0.2 mm 4 m/s 755 mmHg 80%
    19:00 +30°C° 0 mm 4 m/s 755 mmHg 82%
    20:00 +30°C° 0 mm 4 m/s 756 mmHg 83%
    21:00 +29°C° 0 mm 4 m/s 756 mmHg 85%
    22:00 +29°C° 0 mm 4 m/s 756 mmHg 85%
    23:00 +29°C° 0 mm 4 m/s 756 mmHg 86%

    Amanhã, 18 Novembro, Segunda-feira

    Tempo Temperatura Precipitação Vento Pressão Humidade
    00:00 +29°C° 0 mm 4 m/s 756 mmHg 87%
    01:00 +29°C° 0 mm 4 m/s 756 mmHg 88%
    02:00 +29°C° 0 mm 4 m/s 755 mmHg 89%
    03:00 +28°C° 0 mm 3 m/s 754 mmHg 90%
    04:00 +28°C° 0 mm 3 m/s 755 mmHg 90%
    05:00 +28°C° 0 mm 3 m/s 755 mmHg 91%
    06:00 +28°C° 0 mm 3 m/s 756 mmHg 91%
    07:00 +29°C° 0 mm 3 m/s 756 mmHg 84%
    08:00 +31°C° 0 mm 3 m/s 757 mmHg 78%
    09:00 +33°C° 0 mm 3 m/s 757 mmHg 71%
    10:00 +34°C° 0 mm 3 m/s 757 mmHg 68%
    11:00 +34°C° 0 mm 3 m/s 756 mmHg 65%
    12:00 +35°C° 0 mm 3 m/s 756 mmHg 62%
    13:00 +34°C° 0 mm 3 m/s 755 mmHg 62%
    14:00 +34°C° 0 mm 4 m/s 755 mmHg 63%
    15:00 +34°C° 0 mm 4 m/s 754 mmHg 64%
    16:00 +33°C° 0 mm 4 m/s 754 mmHg 69%
    17:00 +32°C° 0 mm 4 m/s 755 mmHg 74%
    18:00 +30°C° 0 mm 4 m/s 755 mmHg 80%
    19:00 +29°C° 0.1 mm 4 m/s 756 mmHg 81%
    20:00 +29°C° 0.1 mm 4 m/s 756 mmHg 81%
    21:00 +29°C° 0.1 mm 4 m/s 757 mmHg 82%
    22:00 +29°C° 0.1 mm 4 m/s 757 mmHg 82%
    23:00 +29°C° 0.1 mm 5 m/s 757 mmHg 82%

    Depois de amanhã, 19 Novembro, Terça-feira

    Tempo Temperatura Precipitação Vento Pressão Humidade
    00:00 +29°C° 0.1 mm 5 m/s 757 mmHg 82%
    01:00 +29°C° 0.2 mm 5 m/s 757 mmHg 83%
    02:00 +28°C° 0.2 mm 4 m/s 756 mmHg 84%
    03:00 +28°C° 0.2 mm 4 m/s 756 mmHg 86%
    04:00 +28°C° 0.1 mm 4 m/s 756 mmHg 86%
    05:00 +28°C° 0.1 mm 3 m/s 757 mmHg 86%
    06:00 +28°C° 0.1 mm 3 m/s 757 mmHg 87%
    07:00 +30°C° 0 mm 3 m/s 757 mmHg 80%
    08:00 +31°C° 0 mm 3 m/s 758 mmHg 72%
    09:00 +34°C° 0 mm 3 m/s 758 mmHg 65%
    10:00 +34°C° 0 mm 3 m/s 758 mmHg 63%
    11:00 +34°C° 0 mm 4 m/s 757 mmHg 61%
    12:00 +35°C° 0 mm 4 m/s 757 mmHg 59%
    13:00 +35°C° 0 mm 4 m/s 756 mmHg 60%
    14:00 +34°C° 0 mm 4 m/s 756 mmHg 60%
    15:00 +34°C° 0 mm 4 m/s 755 mmHg 61%
    16:00 +33°C° 0 mm 4 m/s 756 mmHg 66%
    17:00 +31°C° 0 mm 3 m/s 756 mmHg 72%
    18:00 +30°C° 0 mm 3 m/s 756 mmHg 77%
    19:00 +29°C° 0 mm 3 m/s 756 mmHg 78%
    20:00 +29°C° 0 mm 3 m/s 757 mmHg 79%
    21:00 +29°C° 0 mm 3 m/s 757 mmHg 81%
    22:00 +29°C° 0 mm 3 m/s 757 mmHg 82%
    23:00 +29°C° 0 mm 3 m/s 757 mmHg 83%

    20 Novembro, Quarta-feira

    Tempo Temperatura Precipitação Vento Pressão Humidade
    00:00 +28°C° 0 mm 4 m/s 757 mmHg 84%
    01:00 +28°C° 0 mm 3 m/s 756 mmHg 85%
    02:00 +28°C° 0 mm 3 m/s 756 mmHg 86%
    03:00 +28°C° 0 mm 3 m/s 756 mmHg 87%
    04:00 +28°C° 0 mm 3 m/s 756 mmHg 87%
    05:00 +28°C° 0 mm 3 m/s 756 mmHg 87%
    06:00 +28°C° 0 mm 3 m/s 757 mmHg 88%
    07:00 +29°C° 0 mm 3 m/s 757 mmHg 82%
    08:00 +30°C° 0 mm 3 m/s 758 mmHg 77%
    09:00 +31°C° 0 mm 3 m/s 758 mmHg 72%
    10:00 +33°C° 0 mm 3 m/s 758 mmHg 68%
    11:00 +33°C° 0 mm 3 m/s 757 mmHg 65%
    12:00 +34°C° 0 mm 3 m/s 757 mmHg 62%
    13:00 +34°C° 0 mm 3 m/s 756 mmHg 62%
    14:00 +34°C° 0 mm 4 m/s 756 mmHg 63%
    15:00 +34°C° 0 mm 4 m/s 755 mmHg 63%
    16:00 +33°C° 0 mm 4 m/s 755 mmHg 69%
    17:00 +30°C° 0 mm 3 m/s 756 mmHg 74%
    18:00 +29°C° 0 mm 3 m/s 756 mmHg 79%
    19:00 +29°C° 0.1 mm 3 m/s 756 mmHg 81%
    20:00 +29°C° 0.1 mm 3 m/s 757 mmHg 83%
    21:00 +28°C° 0.1 mm 4 m/s 757 mmHg 84%
    22:00 +28°C° 0 mm 4 m/s 757 mmHg 85%
    23:00 +28°C° 0 mm 4 m/s 757 mmHg 85%

    21 Novembro, Quinta-feira

    Tempo Temperatura Precipitação Vento Pressão Humidade
    00:00 +28°C° 0 mm 4 m/s 756 mmHg 86%
    01:00 +28°C° 0 mm 4 m/s 756 mmHg 87%
    02:00 +28°C° 0 mm 3 m/s 756 mmHg 87%
    03:00 +28°C° 0 mm 3 m/s 755 mmHg 88%
    04:00 +27°C° 0 mm 3 m/s 756 mmHg 89%
    05:00 +27°C° 0 mm 3 m/s 756 mmHg 89%
    06:00 +27°C° 0 mm 3 m/s 756 mmHg 90%
    07:00 +28°C° 0 mm 3 m/s 757 mmHg 84%
    08:00 +30°C° 0 mm 3 m/s 757 mmHg 78%
    09:00 +31°C° 0 mm 3 m/s 757 mmHg 73%
    10:00 +33°C° 0 mm 4 m/s 757 mmHg 69%
    11:00 +33°C° 0 mm 4 m/s 756 mmHg 66%
    12:00 +34°C° 0 mm 4 m/s 756 mmHg 63%
    13:00 +34°C° 0 mm 5 m/s 755 mmHg 65%
    14:00 +33°C° 0 mm 5 m/s 755 mmHg 66%
    15:00 +33°C° 0 mm 5 m/s 755 mmHg 68%
    16:00 +32°C° 0 mm 5 m/s 755 mmHg 71%
    17:00 +30°C° 0 mm 5 m/s 755 mmHg 75%
    18:00 +29°C° 0 mm 5 m/s 756 mmHg 78%
    19:00 +29°C° 0 mm 5 m/s 756 mmHg 78%
    20:00 +29°C° 0 mm 5 m/s 757 mmHg 79%
    21:00 +29°C° 0 mm 5 m/s 757 mmHg 80%
    22:00 +29°C° 0 mm 5 m/s 757 mmHg 81%
    23:00 +29°C° 0 mm 5 m/s 757 mmHg 82%

    22 Novembro, Sexta-feira

    Tempo Temperatura Precipitação Vento Pressão Humidade
    00:00 +29°C° 0 mm 5 m/s 757 mmHg 83%
    01:00 +28°C° 0 mm 5 m/s 756 mmHg 84%
    02:00 +28°C° 0 mm 5 m/s 756 mmHg 85%
    03:00 +28°C° 0 mm 5 m/s 756 mmHg 87%
    04:00 +28°C° 0 mm 5 m/s 756 mmHg 86%
    05:00 +28°C° 0 mm 4 m/s 756 mmHg 86%
    06:00 +28°C° 0 mm 4 m/s 756 mmHg 86%
    07:00 +29°C° 0.1 mm 4 m/s 757 mmHg 81%
    08:00 +30°C° 0.1 mm 5 m/s 757 mmHg 77%
    09:00 +32°C° 0.1 mm 5 m/s 758 mmHg 72%
    10:00 +33°C° 0.1 mm 5 m/s 757 mmHg 70%
    11:00 +33°C° 0.1 mm 5 m/s 757 mmHg 68%
    12:00 +33°C° 0.1 mm 6 m/s 756 mmHg 65%
    13:00 +33°C° 0.2 mm 6 m/s 756 mmHg 66%
    14:00 +33°C° 0.2 mm 6 m/s 755 mmHg 66%
    15:00 +33°C° 0.2 mm 6 m/s 755 mmHg 66%
    16:00 +32°C° 0.2 mm 6 m/s 755 mmHg 71%
    17:00 +30°C° 0.2 mm 6 m/s 756 mmHg 75%
    18:00 +29°C° 0.2 mm 5 m/s 756 mmHg 80%
    19:00 +29°C° 0.5 mm 5 m/s 757 mmHg 82%
    20:00 +29°C° 0.5 mm 5 m/s 757 mmHg 84%
    21:00 +28°C° 0.5 mm 4 m/s 758 mmHg 85%
    22:00 +28°C° 0.4 mm 4 m/s 758 mmHg 86%
    23:00 +28°C° 0.4 mm 4 m/s 758 mmHg 86%
    Mostrar mais